Regional Weather Roundup
Issued by NWS Sterling, VA

Home | Current Version | Previous Version | Text Only | Print | Product List | Glossary Off
Versions: 1 2 3 4 5 6 7 8 9 10 11 12 13 14 15 16 17 18 19 20 21 22 23 24 25 26 27

000
ASUS41 KLWX 182310
RWRLWX

REGIONAL WEATHER ROUNDUP
NATIONAL WEATHER SERVICE BALTIMORE MD/WASHINGTON DC
700 PM EDT FRI APR 18 2014

Note: "FAIR" indicates few or no clouds below 12,000 feet
with no significant weather and/or obstructions to visibility.
 TC=TEMPERATURE CELSIUS

 * =Non NWS site. Station does not report precipitation (e.g. rain,
    snow, etc.), thunder, or fog.

DCZ001-MDZ009-015-VAZ040>042-051-053>054-190000-
WASHINGTON METRO

CITY           SKY/WX    TMP DP  RH WIND       PRES   REMARKS
WASHINGTON NAT CLOUDY    54  34  46 SE7       30.30F
DULLES         CLOUDY    53  33  46 S6        30.27F
ANDREWS AFB    CLOUDY    50  34  54 SE7       30.29F
FT BELVOIR     CLOUDY    53  35  51 SE8       30.29F
QUANTICO       CLOUDY    52  36  54 SE10      30.30F
COLLEGE PARK*  CLOUDY    52  34  50 E6        30.28F
LEESBURG*      CLOUDY    55  36  47 CALM      30.28S
MANASSAS*      CLOUDY    54  36  50 SE8       30.28F
GAITHERSBURG*  CLOUDY    52  32  46 E6        30.31S

$$

MDZ006>007-011-014-190000-
BALTIMORE METRO

CITY           SKY/WX    TMP DP  RH WIND       PRES   REMARKS
BWI AIRPORT    CLOUDY    50  33  52 E6        30.29F
MD SCIENCE CTR   N/A     50  32  50 MISG      30.30F
MARTIN STATE   CLOUDY    52  34  50 CALM      30.33F
ANNAPOLIS      CLOUDY    51  34  52 CALM      30.30F
FORT MEADE*    MOCLDY    50  32  50 SE3       30.32F

$$

MDZ012-015-019>023-190000-
MARYLAND EASTERN SHORE

CITY           SKY/WX    TMP DP  RH WIND       PRES   REMARKS
OCEAN CITY     CLOUDY    44  38  79 E5        30.34F
SALISBURY      CLOUDY    49  38  65 E7        30.32F
BAY BRIDGE AP* CLOUDY    48  36  61 CALM      30.32F
CAMBRIDGE*     CLOUDY    52  41  66 W5        30.32S
EASTON*        CLOUDY    50  41  71 CALM      30.36S

$$

MDZ017>025-190000-
SOUTHERN MARYLAND

CITY           SKY/WX    TMP DP  RH WIND       PRES   REMARKS
PATUXENT RIVER CLOUDY    50  37  61 E5        30.30F
ST INIGOES     CLOUDY    49  38  65 CALM      30.30F
LEONARDTOWN*   CLOUDY    50  36  57 CALM      30.32F

$$

MDZ003>005-190000-
NORTH CENTRAL MARYLAND

CITY           SKY/WX    TMP DP  RH WIND       PRES   REMARKS
FREDERICK*     CLEAR     54  37  54 VRB5      30.30F
HAGERSTOWN APT CLOUDY    53  33  46 S7        30.26F
WESTMINSTER*   CLOUDY    52  34  50 SE8       30.27F

$$

MDZ501>502-190000-
WESTERN MARYLAND

CITY           SKY/WX    TMP DP  RH WIND       PRES   REMARKS
OAKLAND*       CLOUDY    54  23  30 SE7       30.22S
CUMBERLAND*    CLOUDY    59  32  36 SE7       30.27R

$$

VAZ025>031-190000-
SHENANDOAH VALLEY

CITY           SKY/WX    TMP DP  RH WIND       PRES   REMARKS
WINCHESTER*    CLOUDY    55  36  47 SE8       30.25S
STAUNTON*      CLOUDY    55  36  47 SE3       30.27S

$$

WVZ021-048>050-054>055-190000-
EASTERN WEST VIRGINIA PANHANDLE

CITY           SKY/WX    TMP DP  RH WIND       PRES   REMARKS
MARTINSBURG    CLOUDY    55  34  45 SE6       30.26F
PETERSBURG*    CLOUDY    65  44  46 SE8       30.22R

$$

VAZ036>039-050-190000-
CENTRAL FOOTHILLS

CITY           SKY/WX    TMP DP  RH WIND       PRES   REMARKS
CHARLOTTESVILL CLOUDY    55  38  52 S3        30.28R
CULPEPER*      CLOUDY    57  34  41 CALM      30.29S

$$

VAZ055>057-190000-
NORTH AND CENTRAL PIEDMONT

CITY           SKY/WX    TMP DP  RH WIND       PRES   REMARKS
FREDERICKSBRG* CLOUDY    52  37  58 E7        30.29R
STAFFORD*      CLOUDY    51  38  59 E6        30.34R

$$

NCZ024-NYZ072-PAZ021-071-VAZ022-071-190000-
OTHER REGIONAL OBSERVATIONS

CITY           SKY/WX    TMP DP  RH WIND       PRES   REMARKS
NEW YORK CITY  CLOUDY    46  30  53 VRB3      30.34F
PHILADELPHIA   MOCLDY    54  29  38 CALM      30.31F
PITTSBURGH     CLOUDY    66  32  28 NW15      30.19S
ROANOKE        CLOUDY    53  38  56 SE6       30.30S
RICHMOND       CLOUDY    52  35  52 E6        30.30S
RALEIGH        CLOUDY    58  40  51 NE7       30.26F

$$

ANZ530>537-190000-
MARINE OBSERVATIONS

STATION/POSITION TIME  TEMP    WIND        PRES
                       AIR SEA DIR/SP/G
                 (UTC) (F)     (DEG/KT/KT) (MB)
THOMAS PT LIGHT  2300   49 52   CALM  /  1 1027.2F
BALT KEY BRIDGE  2300   50      90/  4/  5 1026.4F
COVE POINT       2300   48     360/  4/  5 1026.5F
LEWISETTA        2300   49 53   70/  2/  3 1026.2R
SOLOMONS ISLAND  2300      52                N/A
PINEY POINT      2300          180/  3/  3   N/A

$$




USA.gov is the U.S. government's official web portal to all federal, state and local government web resources and services.